Location: Olomouc
(49.5830°N, 17.2500°E)
Time: 05:08:01
(UTC+01:00)

ISS - Pass Details

Date: 03 November 2021
Orbit: 417 x 423 km, 51.6° (Epoch: 01 December)

Event Time Altitude Azimuth Distance (km) Brightness Sun altitude
Exits shadow 04:39:03 62° 10° (N) 476 -3.6 -20.4°
Drops below altitude 10° 04:42:22 10° 90° (E) 1,500 0.3 -19.9°
Sets 04:44:29 0° 93° (E) 2,362 1.7 -19.5°
